Regional Weather Roundup
Issued by NWS Little Rock, AR

Home | Current Version | Previous Version | Graphics & Text | Print | Product List | Glossary On
Versions: 1 2 3 4 5 6 7 8 9 10 11 12 13 14 15 16 17 18 19 20 21 22 23 24 25 26 27 28 29 30 31 32 33 34 35 36 37 38 39 40 41 42 43 44 45 46 47 48 49 50
000
ASUS44 KLZK 040805
RWRLZK

WEATHER ROUNDUP FOR ARKANSAS
NATIONAL WEATHER SERVICE LITTLE ROCK AR
300 AM CDT FRI SEP 04 2015

NOTE: "FAIR" INDICATES FEW OR NO CLOUDS BELOW 12,000 FEET WITH NO
SIGNIFICANT WEATHER AND/OR OBSTRUCTIONS TO VISIBILITY.

ARZ001-003-010-029-040900-
NORTHWEST ARKANSAS

CITY           SKY/WX    TMP DP  RH WIND       PRES   REMARKS
FAYETTEVILLE   CLEAR     66  66 100 CALM      29.99S FOG
FORT SMITH     CLEAR     74  69  85 E5        29.94R
HARRISON       CLEAR     69  67  93 SE3       30.00S
BENTONVILLE    CLEAR     70  64  83 S3        29.99S
ROGERS         CLEAR     72  67  84 SE5       30.00S
SILOAM SPGS    CLEAR     70  63  78 E3        29.96F
HIGHFILL       CLEAR     70  67  90 CALM      29.98S
$$

ARZ004-005-016-040900-
NORTH CENTRAL ARKANSAS

CITY           SKY/WX    TMP DP  RH WIND       PRES   REMARKS
BATESVILLE     CLEAR     70  68  94 CALM      29.97S
FLIPPIN        CLEAR     70  64  83 CALM      29.96S
MTN HOME       CLEAR     72  68  87 CALM      29.98S
$$

ARZ040-041-040900-
WEST CENTRAL ARKANSAS

CITY           SKY/WX    TMP DP  RH WIND       PRES   REMARKS
MENA           CLEAR     70  66  88 CALM      29.98S
MOUNT IDA      CLEAR     69  67  93 CALM      29.94S FOG
$$

ARZ009-017-025-026-028-040900-
NORTHEAST ARKANSAS

CITY           SKY/WX    TMP DP  RH WIND       PRES   REMARKS
JONESBORO      CLEAR     69  69 100 SW3       29.96S
NEWPORT        CLEAR     73  72  97 CALM      29.97R
WALNUT RIDGE   CLEAR     72  66  83 CALM      29.96S
BLYTHEVILLE    CLEAR     71  71 100 N5        29.96S
$$

ARZ022-023-033-042-044-040900-
CENTRAL ARKANSAS

CITY           SKY/WX    TMP DP  RH WIND       PRES   REMARKS
LITTLE ROCK    CLEAR     75  70  84 CALM      29.95R
N LITTLE ROCK    N/A     75  70  84 CALM      29.95R
JACKSONVILLE   CLEAR     70  68  93 CALM      29.94S
SEARCY         CLEAR     71  70  96 CALM      29.97S
HOT SPRINGS    CLEAR     74  68  81 CALM      29.95S
RUSSELLVILLE   CLEAR     72  69  90 CALM      29.94S
$$

ARZ036-040900-
EAST ARKANSAS

CITY           SKY/WX    TMP DP  RH WIND       PRES   REMARKS
WEST MEMPHIS   CLEAR     72  72 100 CALM      29.94S
$$

ARZ050-053-066-070-073-040900-
SOUTHWEST ARKANSAS

CITY           SKY/WX    TMP DP  RH WIND       PRES   REMARKS
ARKADELPHIA    FAIR      71  70  97 CALM      29.93S
CAMDEN         CLEAR     70  66  88 CALM      29.92S FOG
TEXARKANA      CLEAR     76  69  79 SE3       29.92S
EL DORADO      CLEAR     73  69  87 CALM      29.92S
DE QUEEN       CLEAR     69  69 100 CALM      29.91S FOG
$$

ARZ056-057-069-040900-
SOUTHEAST ARKANSAS

CITY           SKY/WX    TMP DP  RH WIND       PRES   REMARKS
PINE BLUFF     CLEAR     72  70  93 CALM      29.94S
STUTTGART      CLEAR     77  66  69 E3        29.95S
MONTICELLO     CLEAR     75  71  87 CALM      29.94R

$$





USA.gov is the U.S. government's official web portal to all federal, state and local government web resources and services.